Regional Weather Roundup
Issued by NWS

Home | Current Version | Previous Version | Text Only | Print | Product List | Glossary Off
Versions: 1 2 3 4 5 6 7 8 9 10 11 12 13 14 15 16 17 18 19 20 21 22 23 24 25 26 27 28 29 30 31 32 33 34 35 36 37 38 39 40 41 42 43 44 45 46 47 48 49 50

000
ASUS45 KTFX 200604
RWRMT
MONTANA HOURLY WEATHER ROUNDUP
NATIONAL WEATHER SERVICE GREAT FALLS MT
1204 AM MDT WED AUG 20 2014

NOTE: "FAIR" INDICATES FEW OR NO CLOUDS BELOW 12000 FEET WITH NO
SIGNIFICANT WEATHER AND/OR OBSTRUCTIONS TO VISIBILITY.

* THESE STATIONS ARE NOT UNDER NWS QUALITY CONTROL. THEY DO NOT
   REPORT WEATHER SUCH AS PRECIPITATION OR FOG.

MTZ001>007-043-200700-
WEST OF THE DIVIDE
CITY           SKY/WX    TMP DP  RH WIND       PRES   REMARKS
KALISPELL      MOCLDY    61  57  87 E7        29.79R
MISSOULA       PTCLDY    63  45  52 CALM      29.79S
BUTTE          MOCLDY    59  43  56 S5        29.92F
MULLAN PASS    PTCLDY    55  43  64 SE7       29.92S
$$

MTZ008-052>055-200700-
SOUTHWEST MONTANA
CITY           SKY/WX    TMP DP  RH WIND       PRES   REMARKS
BOZEMAN        CLOUDY    61  52  72 CALM      29.86S
DILLON         CLOUDY    57  48  72 S5        29.90F
W YELLOWSTONE  CLOUDY    48  48 100 CALM      30.07F
$$

MTZ009>010-012-014-046-048-049-054-200700-
EAST SLOPES AND CENTRAL MONTANA
CITY           SKY/WX    TMP DP  RH WIND       PRES   REMARKS
CUT BANK       MOCLDY    59  48  67 N13       29.76S
GREAT FALLS    MOCLDY    66  46  49 CALM      29.77R
HELENA         PTCLDY    70  48  46 SW3       29.79R
MALMSTROM AFB  MOCLDY    64  50  61 S3        29.78R
$$

MTZ011-013-016-021-035-040-045-047-050-051-200700-
NORTH CENTRAL MONTANA
CITY           SKY/WX    TMP DP  RH WIND       PRES   REMARKS
HAVRE          CLOUDY    70  52  53 W9        29.67R
LEWISTOWN      CLOUDY    68  45  44 CALM      29.76S
* CHESTER      N/A       65  47  52 NW2        N/A
$$

MTZ017>020-022>027-061-062-200700-
NORTHEAST MONTANA
CITY           SKY/WX    TMP DP  RH WIND       PRES   REMARKS
GLASGOW        PTCLDY    70  48  46 SE5       29.58F
GLENDIVE       MOCLDY    73  57  57 S8        29.66S
JORDAN         MOCLDY    70  54  57 CALM      29.62F
SIDNEY         MOCLDY    70  59  68 S3        29.64S
WOLF POINT     PTCLDY    63  46  54 E9        29.61R
* CIRCLE       N/A       69  52  55 N/A        N/A
$$

MTZ028>042-056>058-200700-
SOUTHCENTRAL AND SOUTHEAST MONTANA
CITY           SKY/WX    TMP DP  RH WIND       PRES   REMARKS
BAKER          PTCLDY    72  55  55 SE15      29.70F
BILLINGS       MOCLDY    70  45  41 S7        29.74S
LIVINGSTON     CLOUDY    70  41  35 SW41G52   29.80F
MILES CITY     CLOUDY    75  48  39 SE7       29.64S
$$

REGIONAL REPORTS...DAKOTAS
CITY           SKY/WX    TMP DP  RH WIND       PRES   REMARKS
WILLISTON      CLEAR     75  61  62 SE6       29.64S
DICKINSON      PTCLDY    66  57  73 S8        29.69S
BEACH          N/A       66  59  78 SE9       29.69S
CROSBY         CLEAR     72  61  68 SE17G26   29.63F
TIOGA          CLEAR     63  63 100 E6        29.71S
WATFORD CITY   CLEAR     70  63  79 SE12      29.63F
BISMARCK       PTCLDY    70  61  73 E5        29.73S
GRAND FORKS    CLEAR     66  63  90 SE5       29.76R
FARGO          CLEAR     66  63  90 SE6       29.76F
BUFFALO SD     PTCLDY    73  57  57 SE18      29.65F
RAPID CITY     PTCLDY    68  61  78 S5        29.75S
$$

REGIONAL REPORTS...WYOMING/IDAHO/WASHINGTON
CITY           SKY/WX    TMP DP  RH WIND       PRES   REMARKS
GILLETTE       CLOUDY    79  41  26 SW18G24   29.75F
SHERIDAN       CLOUDY    72  45  38 CALM      29.74F
CODY           CLOUDY    64  46  52 NE9       29.88R
YELLOWSTONE LA CLOUDY    48  43  83 VRB5      30.13F
SALMON         MOCLDY    55  52  90 CALM      29.88R
MULLAN PASS    PTCLDY    55  43  64 SE7       29.92S
SAND POINT     LGT RAIN  64  55  73 NE5       29.72F
SPOKANE        PTCLDY    68  52  57 E7        29.71R
$$

REGIONAL REPORTS...ALBERTA
CITY           SKY/WX    TMP DP  RH WIND       PRES   REMARKS
MEDICINE HAT   LGT RAIN  61  59  93 W3        29.70R
$$

REGIONAL REPORTS...SASKATCHEWAN
CITY           SKY/WX    TMP DP  RH WIND       PRES   REMARKS
REGINA         TSTM      68  63  84 SE17G23   29.61F

$$




USA.gov is the U.S. government's official web portal to all federal, state and local government web resources and services.